Flag for Canada Weather past 2 weeks in Chatham-Kent, Ontario, Canada

Now
76 °F

Mild.


Feels Like: 77 °F
Forecast: 63 / 74 °F
Wind: 2 mph from Southwest

Location: Erieau

Current Time: Jul 23, 2014 at 1:17:24 AM

Latest Report: Jul 23, 2014 at 12:00 AM


Visibility: N/A

Pressure: 29.93 "Hg

Humidity: 89%

Dew point: 73 °F

Location of Chatham-KentLocation

Historic Weather in Chatham-Kent — Graph

°F

Chatham-Kent temperature yesterday

Maximum temperature yesterday: 79 °F (at 12:00 PM)
Minimum temperature yesterday: 70 °F (at 5:00 AM)
Average temperature yesterday: 74 °F

Past Weeks' High & Low Weather Summary

 TemperatureHumidityPressure
High80 °F (Jul 14, 5:00 PM)100% (Jul 21, 4:00 AM)30.24 "Hg (Jul 21, 4:00 AM)
Low57 °F (Jul 16, 7:00 AM)38% (Jul 17, 1:00 PM)29.55 "Hg (Jul 8, 12:00 PM)
Average69 °F77%29.99 "Hg
* Reported Midnight between Jul 7 and Jul 8 — Midnight between Jul 22 and Jul 23, Chatham-Kent, Weather by CustomWeather, © 2014

Note: Actual official high and low records may vary slightly from our data, if they occured in-between our weather recording intervals... More about our weather records

Advertising

Chatham-Kent weather history for previous 24 hours

 ConditionsComfort  
Time TempWeatherWind HumidityBarometerVisibility
12:00 AM
Jul 23
76 °FMild.2 mph89%29.93 "HgN/A
11:00 PM
Jul 22
77 °FWarm.8 mph84%29.93 "HgN/A
10:00 PM78 °FWarm.8 mph80%29.94 "HgN/A
9:00 PM78 °FWarm.5 mph82%29.93 "HgN/A
8:00 PM78 °FWarm.1 mph78%29.93 "HgN/A
12:00 PM79 °FWarm.No wind70%30.06 "HgN/A
11:00 AM78 °FWarm.1 mph69%30.08 "HgN/A
10:00 AM75 °FMild.2 mph82%30.10 "HgN/A
9:00 AM73 °FMild.3 mph84%30.11 "HgN/A
8:00 AM72 °FMild.2 mph86%30.11 "HgN/A
7:00 AM72 °FMild.3 mph82%30.10 "HgN/A
6:00 AM70 °FMild.1 mph88%30.10 "HgN/A
5:00 AM70 °FMild.1 mph92%30.10 "HgN/A
4:00 AM71 °FMild.2 mph93%30.09 "HgN/A
3:00 AM72 °FMild.5 mph91%30.09 "HgN/A
2:00 AM71 °FMild.5 mph88%30.09 "HgN/A
1:00 AM71 °FMild.1 mph86%30.10 "HgN/A
Weather by CustomWeather, © 2014

See weather overviewHow to use our weather pages